sat.trackr.live / text

‹ back to catalog

STARLINK-37154

NORAD 68316 · 2026-057Y

PAYLOAD ACTIVE UNKNOWN

§ Identity

Operator
Country
US
Launch date
2026-03-20
Launch site
AFWTR
Launch vehicle
Mass (kg)
RCS (m²)

Purposes: comms

External: N2YO · Heavens-Above · Gunter

§ Orbital elements

Epoch: 2026-09-19T14:48:41.795424Z

Period
93.91 min
Inclination
97.2853°
Eccentricity
0.0001639
Mean motion
15.33451949 rev/d
Perigee alt
464.4 km
Apogee alt
466.6 km
Semi-major
6,843.7 km
B*
5.1412e-4
RAAN
27.9555°
Arg perigee
99.8477°
Mean anomaly
260.2951°
Rev number
2,837

§ Raw data

STARLINK-371541 68316U 26057Y   26262.61715041  .00016563  00000+0  51412-3 0  99932 68316  97.2853  27.9555 0001639  99.8477 260.2951 15.33451949 28375

JSON: /api/v1/satellites/68316 · /tle

For live sub-satellite position, see the globe view (requires WebGL).

§ Visibility from observer

Set your observer location to see the next 7 days of passes ≥ 10°. The values pass through the URL so the page stays shareable.

No JS? Fill the form by hand. The geolocation button needs JavaScript.